Year,Month,Day,Hour,Minute,Value (Times are PST for temperature in C)
2013,07,14,00,00,15.20
2013,07,14,00,01,15.10
2013,07,14,00,02,15.10
2013,07,14,00,03,15.10
2013,07,14,00,04,15.00
2013,07,14,00,05,15.00
2013,07,14,00,06,14.90
2013,07,14,00,07,14.90
2013,07,14,00,08,14.90
2013,07,14,00,09,14.90
2013,07,14,00,10,14.90
2013,07,14,00,11,14.90
2013,07,14,00,12,14.90
2013,07,14,00,13,14.80
2013,07,14,00,14,14.80
2013,07,14,00,15,14.80
2013,07,14,00,16,14.80
2013,07,14,00,17,14.80
2013,07,14,00,18,14.70
2013,07,14,00,19,14.70
2013,07,14,00,20,14.70
2013,07,14,00,21,14.70
2013,07,14,00,22,14.70
2013,07,14,00,23,14.70
2013,07,14,00,24,14.60
2013,07,14,00,25,14.60
2013,07,14,00,26,14.60
2013,07,14,00,27,14.60
2013,07,14,00,28,14.70
2013,07,14,00,29,14.70
2013,07,14,00,30,14.70
2013,07,14,00,31,14.70
2013,07,14,00,32,14.70
2013,07,14,00,33,14.70
2013,07,14,00,34,14.70
2013,07,14,00,35,14.70
2013,07,14,00,36,14.70
2013,07,14,00,37,14.60
2013,07,14,00,38,14.70
2013,07,14,00,39,14.70
2013,07,14,00,40,14.70
2013,07,14,00,41,14.70
2013,07,14,00,42,14.70
2013,07,14,00,43,14.70
2013,07,14,00,44,14.70
2013,07,14,00,45,14.70
2013,07,14,00,46,14.70
2013,07,14,00,47,14.70
2013,07,14,00,48,14.80
2013,07,14,00,49,14.80
2013,07,14,00,50,14.70
2013,07,14,00,51,14.70
2013,07,14,00,52,14.70
2013,07,14,00,53,14.70
2013,07,14,00,54,14.60
2013,07,14,00,55,14.60
2013,07,14,00,56,14.60
2013,07,14,00,57,14.60
2013,07,14,00,58,14.50
2013,07,14,00,59,14.50
2013,07,14,01,00,14.50
2013,07,14,01,01,14.40
2013,07,14,01,02,14.40
2013,07,14,01,03,14.40
2013,07,14,01,04,14.30
2013,07,14,01,05,14.30
2013,07,14,01,06,14.30
2013,07,14,01,07,14.30
2013,07,14,01,08,14.30
2013,07,14,01,09,14.20
2013,07,14,01,10,14.20
2013,07,14,01,11,14.20
2013,07,14,01,12,14.20
2013,07,14,01,13,14.20
2013,07,14,01,14,14.10
2013,07,14,01,15,14.10
2013,07,14,01,16,14.10
2013,07,14,01,17,14.10
2013,07,14,01,18,14.10
2013,07,14,01,19,14.10
2013,07,14,01,20,14.00
2013,07,14,01,21,14.00
2013,07,14,01,22,13.90
2013,07,14,01,23,13.90
2013,07,14,01,24,13.90
2013,07,14,01,25,13.90
2013,07,14,01,26,13.90
2013,07,14,01,27,13.90
2013,07,14,01,28,13.90
2013,07,14,01,29,13.90
2013,07,14,01,30,13.90
2013,07,14,01,31,13.90
2013,07,14,01,32,13.90
2013,07,14,01,33,13.90
2013,07,14,01,34,13.90
2013,07,14,01,35,13.90
2013,07,14,01,36,14.00
2013,07,14,01,37,14.00
2013,07,14,01,38,14.10
2013,07,14,01,39,14.20
2013,07,14,01,40,14.30
2013,07,14,01,41,14.50
2013,07,14,01,42,14.70
2013,07,14,01,43,14.80
2013,07,14,01,44,15.00
2013,07,14,01,45,15.10
2013,07,14,01,46,15.30
2013,07,14,01,47,15.40
2013,07,14,01,48,15.50
2013,07,14,01,49,15.60
2013,07,14,01,50,15.70
2013,07,14,01,51,15.80
2013,07,14,01,52,15.90
2013,07,14,01,53,16.00
2013,07,14,01,54,16.10
2013,07,14,01,55,16.20
2013,07,14,01,56,16.30
2013,07,14,01,57,16.30
2013,07,14,01,58,16.40
2013,07,14,01,59,16.40
2013,07,14,02,00,16.40
2013,07,14,02,01,16.50
2013,07,14,02,02,16.50
2013,07,14,02,03,16.60
2013,07,14,02,04,16.60
2013,07,14,02,05,16.70
2013,07,14,02,06,16.70
2013,07,14,02,07,16.70
2013,07,14,02,08,16.80
2013,07,14,02,09,16.80
2013,07,14,02,10,16.90
2013,07,14,02,11,16.90
2013,07,14,02,12,17.00
2013,07,14,02,13,17.00
2013,07,14,02,14,17.10
2013,07,14,02,15,17.20
2013,07,14,02,16,17.20
2013,07,14,02,17,17.20
2013,07,14,02,18,17.30
2013,07,14,02,19,17.30
2013,07,14,02,20,17.40
2013,07,14,02,21,17.40
2013,07,14,02,22,17.50
2013,07,14,02,23,17.50
2013,07,14,02,24,17.50
2013,07,14,02,25,17.60
2013,07,14,02,26,17.60
2013,07,14,02,27,17.60
2013,07,14,02,28,17.60
2013,07,14,02,29,17.60
2013,07,14,02,30,17.60
2013,07,14,02,31,17.60
2013,07,14,02,32,17.60
2013,07,14,02,33,17.60
2013,07,14,02,34,17.70
2013,07,14,02,35,17.70
2013,07,14,02,36,17.70
2013,07,14,02,37,17.70
2013,07,14,02,38,17.70
2013,07,14,02,39,17.70
2013,07,14,02,40,17.70
2013,07,14,02,41,17.70
2013,07,14,02,42,17.60
2013,07,14,02,43,17.60
2013,07,14,02,44,17.60
2013,07,14,02,45,17.60
2013,07,14,02,46,17.60
2013,07,14,02,47,17.60
2013,07,14,02,48,17.60
2013,07,14,02,49,17.60
2013,07,14,02,50,17.60
2013,07,14,02,51,17.60
2013,07,14,02,52,17.60
2013,07,14,02,53,17.60
2013,07,14,02,54,17.60
2013,07,14,02,55,17.50
2013,07,14,02,56,17.50
2013,07,14,02,57,17.50
2013,07,14,02,58,17.50
2013,07,14,02,59,17.50
2013,07,14,03,00,17.50
2013,07,14,03,01,17.50
2013,07,14,03,02,17.50
2013,07,14,03,03,17.50
2013,07,14,03,04,17.50
2013,07,14,03,05,17.50
2013,07,14,03,06,17.50
2013,07,14,03,07,17.60
2013,07,14,03,08,17.60
2013,07,14,03,09,17.50
2013,07,14,03,10,17.50
2013,07,14,03,11,17.50
2013,07,14,03,12,17.50
2013,07,14,03,13,17.50
2013,07,14,03,14,17.50
2013,07,14,03,15,17.50
2013,07,14,03,16,17.50
2013,07,14,03,17,17.60
2013,07,14,03,18,17.60
2013,07,14,03,19,17.60
2013,07,14,03,20,17.60
2013,07,14,03,21,17.60
2013,07,14,03,22,17.60
2013,07,14,03,23,17.50
2013,07,14,03,24,17.50
2013,07,14,03,25,17.50
2013,07,14,03,26,17.50
2013,07,14,03,27,17.50
2013,07,14,03,28,17.40
2013,07,14,03,29,17.40
2013,07,14,03,30,17.40
2013,07,14,03,31,17.40
2013,07,14,03,32,17.40
2013,07,14,03,33,17.40
2013,07,14,03,34,17.40
2013,07,14,03,35,17.40
2013,07,14,03,36,17.30
2013,07,14,03,37,17.30
2013,07,14,03,38,17.30
2013,07,14,03,39,17.30
2013,07,14,03,40,17.30
2013,07,14,03,41,17.30
2013,07,14,03,42,17.20
2013,07,14,03,43,17.20
2013,07,14,03,44,17.20
2013,07,14,03,45,17.20
2013,07,14,03,46,17.10
2013,07,14,03,47,17.10
2013,07,14,03,48,17.10
2013,07,14,03,49,17.00
2013,07,14,03,50,17.00
2013,07,14,03,51,17.00
2013,07,14,03,52,16.90
2013,07,14,03,53,16.90
2013,07,14,03,54,16.90
2013,07,14,03,55,16.90
2013,07,14,03,56,16.90
2013,07,14,03,57,16.80
2013,07,14,03,58,16.80
2013,07,14,03,59,16.80
2013,07,14,04,00,16.80
2013,07,14,04,01,16.80
2013,07,14,04,02,16.80
2013,07,14,04,03,16.80
2013,07,14,04,04,16.80
2013,07,14,04,05,16.80
2013,07,14,04,06,16.80
2013,07,14,04,07,16.80
2013,07,14,04,08,16.80
2013,07,14,04,09,16.80
2013,07,14,04,10,16.80
2013,07,14,04,11,16.80
2013,07,14,04,12,16.80
2013,07,14,04,13,16.70
2013,07,14,04,14,16.70
2013,07,14,04,15,16.70
2013,07,14,04,16,16.70
2013,07,14,04,17,16.70
2013,07,14,04,18,16.70
2013,07,14,04,19,16.70
2013,07,14,04,20,16.70
2013,07,14,04,21,16.60
2013,07,14,04,22,16.60
2013,07,14,04,23,16.60
2013,07,14,04,24,16.60
2013,07,14,04,25,16.60
2013,07,14,04,26,16.60
2013,07,14,04,27,16.60
2013,07,14,04,28,16.50
2013,07,14,04,29,16.50
2013,07,14,04,30,16.50
2013,07,14,04,31,16.40
2013,07,14,04,32,16.40
2013,07,14,04,33,16.50
2013,07,14,04,34,16.50
2013,07,14,04,35,16.50
2013,07,14,04,36,16.50
2013,07,14,04,37,16.50
2013,07,14,04,38,16.50
2013,07,14,04,39,16.50
2013,07,14,04,40,16.50
2013,07,14,04,41,16.50
2013,07,14,04,42,16.50
2013,07,14,04,43,16.40
2013,07,14,04,44,16.40
2013,07,14,04,45,16.40
2013,07,14,04,46,16.50
2013,07,14,04,47,16.40
2013,07,14,04,48,16.40
2013,07,14,04,49,16.40
2013,07,14,04,50,16.40
2013,07,14,04,51,16.40
2013,07,14,04,52,16.40
2013,07,14,04,53,16.30
2013,07,14,04,54,16.30
2013,07,14,04,55,16.30
2013,07,14,04,56,16.30
2013,07,14,04,57,16.20
2013,07,14,04,58,16.20
2013,07,14,04,59,16.20
2013,07,14,05,00,16.10
2013,07,14,05,01,16.10
2013,07,14,05,02,16.00
2013,07,14,05,03,16.00
2013,07,14,05,04,15.90
2013,07,14,05,05,15.80
2013,07,14,05,06,15.80
2013,07,14,05,07,15.70
2013,07,14,05,08,15.60
2013,07,14,05,09,15.50
2013,07,14,05,10,15.50
2013,07,14,05,11,15.40
2013,07,14,05,12,15.30
2013,07,14,05,13,15.20
2013,07,14,05,14,15.10
2013,07,14,05,15,15.10
2013,07,14,05,16,15.00
2013,07,14,05,17,15.00
2013,07,14,05,18,14.90
2013,07,14,05,19,14.80
2013,07,14,05,20,14.80
2013,07,14,05,21,14.80
2013,07,14,05,22,14.70
2013,07,14,05,23,14.70
2013,07,14,05,24,14.70
2013,07,14,05,25,14.60
2013,07,14,05,26,14.60
2013,07,14,05,27,14.50
2013,07,14,05,28,14.50
2013,07,14,05,29,14.40
2013,07,14,05,30,14.40
2013,07,14,05,31,14.30
2013,07,14,05,32,14.30
2013,07,14,05,33,14.20
2013,07,14,05,34,14.20
2013,07,14,05,35,14.20
2013,07,14,05,36,14.10
2013,07,14,05,37,14.10
2013,07,14,05,38,14.00
2013,07,14,05,39,14.00
2013,07,14,05,40,13.90
2013,07,14,05,41,13.90
2013,07,14,05,42,13.90
2013,07,14,05,43,13.90
2013,07,14,05,44,13.80
2013,07,14,05,45,13.80
2013,07,14,05,46,13.80
2013,07,14,05,47,13.80
2013,07,14,05,48,13.80
2013,07,14,05,49,13.70
2013,07,14,05,50,13.70
2013,07,14,05,51,13.60
2013,07,14,05,52,13.60
2013,07,14,05,53,13.60
2013,07,14,05,54,13.50
2013,07,14,05,55,13.50
2013,07,14,05,56,13.50
2013,07,14,05,57,13.50
2013,07,14,05,58,13.50
2013,07,14,05,59,13.50
2013,07,14,06,00,13.50
2013,07,14,06,01,13.50
2013,07,14,06,02,13.40
2013,07,14,06,03,13.40
2013,07,14,06,04,13.40
2013,07,14,06,05,13.40
2013,07,14,06,06,13.30
2013,07,14,06,07,13.30
2013,07,14,06,08,13.30
2013,07,14,06,09,13.30
2013,07,14,06,10,13.30
2013,07,14,06,11,13.30
2013,07,14,06,12,13.30
2013,07,14,06,13,13.30
2013,07,14,06,14,13.40
2013,07,14,06,15,13.40
2013,07,14,06,16,13.50
2013,07,14,06,17,13.50
2013,07,14,06,18,13.60
2013,07,14,06,19,13.70
2013,07,14,06,20,13.70
2013,07,14,06,21,13.80
2013,07,14,06,22,13.80
2013,07,14,06,23,13.80
2013,07,14,06,24,13.90
2013,07,14,06,25,13.90
2013,07,14,06,26,14.00
2013,07,14,06,27,14.00
2013,07,14,06,28,14.10
2013,07,14,06,29,14.10
2013,07,14,06,30,14.20
2013,07,14,06,31,14.20
2013,07,14,06,32,14.20
2013,07,14,06,33,14.30
2013,07,14,06,34,14.30
2013,07,14,06,35,14.40
2013,07,14,06,36,14.40
2013,07,14,06,37,14.50
2013,07,14,06,38,14.50
2013,07,14,06,39,14.50
2013,07,14,06,40,14.60
2013,07,14,06,41,14.60
2013,07,14,06,42,14.60
2013,07,14,06,43,14.60
2013,07,14,06,44,14.70
2013,07,14,06,45,14.70
2013,07,14,06,46,14.80
2013,07,14,06,47,14.80
2013,07,14,06,48,14.80
2013,07,14,06,49,14.90
2013,07,14,06,50,14.90
2013,07,14,06,51,15.00
2013,07,14,06,52,15.00
2013,07,14,06,53,15.10
2013,07,14,06,54,15.20
2013,07,14,06,55,15.20
2013,07,14,06,56,15.30
2013,07,14,06,57,15.40
2013,07,14,06,58,15.50
2013,07,14,06,59,15.60
2013,07,14,07,00,15.70
2013,07,14,07,01,15.80
2013,07,14,07,02,15.90
2013,07,14,07,03,16.00
2013,07,14,07,04,16.10
2013,07,14,07,05,16.20
2013,07,14,07,06,16.30
2013,07,14,07,07,16.40
2013,07,14,07,08,16.40
2013,07,14,07,09,16.50
2013,07,14,07,10,16.60
2013,07,14,07,11,16.70
2013,07,14,07,12,16.80
2013,07,14,07,13,16.90
2013,07,14,07,14,17.00
2013,07,14,07,15,17.20
2013,07,14,07,16,17.30
2013,07,14,07,17,17.40
2013,07,14,07,18,17.60
2013,07,14,07,19,17.60
2013,07,14,07,20,17.70
2013,07,14,07,21,17.80
2013,07,14,07,22,17.80
2013,07,14,07,23,17.90
2013,07,14,07,24,18.00
2013,07,14,07,25,18.10
2013,07,14,07,26,18.20
2013,07,14,07,27,18.30
2013,07,14,07,28,18.40
2013,07,14,07,29,18.50
2013,07,14,07,30,18.70
2013,07,14,07,31,18.70
2013,07,14,07,32,18.80
2013,07,14,07,33,18.90
2013,07,14,07,34,18.90
2013,07,14,07,35,18.90
2013,07,14,07,36,18.80
2013,07,14,07,37,18.80
2013,07,14,07,38,18.80
2013,07,14,07,39,18.80
2013,07,14,07,40,18.80
2013,07,14,07,41,18.90
2013,07,14,07,42,18.90
2013,07,14,07,43,18.90
2013,07,14,07,44,19.00
2013,07,14,07,45,19.10
2013,07,14,07,46,19.10
2013,07,14,07,47,19.20
2013,07,14,07,48,19.30
2013,07,14,07,49,19.40
2013,07,14,07,50,19.50
2013,07,14,07,51,19.50
2013,07,14,07,52,19.50
2013,07,14,07,53,19.50
2013,07,14,07,54,19.40
2013,07,14,07,55,19.40
2013,07,14,07,56,19.40
2013,07,14,07,57,19.40
2013,07,14,07,58,19.40
2013,07,14,07,59,19.40
2013,07,14,08,00,19.50
2013,07,14,08,01,19.60
2013,07,14,08,02,19.60
2013,07,14,08,03,19.70
2013,07,14,08,04,19.80
2013,07,14,08,05,19.90
2013,07,14,08,06,20.00
2013,07,14,08,07,20.00
2013,07,14,08,08,20.00
2013,07,14,08,09,19.90
2013,07,14,08,10,19.80
2013,07,14,08,11,19.70
2013,07,14,08,12,19.60
2013,07,14,08,13,19.50
2013,07,14,08,14,19.40
2013,07,14,08,15,19.30
2013,07,14,08,16,19.20
2013,07,14,08,17,19.20
2013,07,14,08,18,19.10
2013,07,14,08,19,19.10
2013,07,14,08,20,19.10
2013,07,14,08,21,19.10
2013,07,14,08,22,19.20
2013,07,14,08,23,19.20
2013,07,14,08,24,19.30
2013,07,14,08,25,19.30
2013,07,14,08,26,19.40
2013,07,14,08,27,19.40
2013,07,14,08,28,19.40
2013,07,14,08,29,19.40
2013,07,14,08,30,19.40
2013,07,14,08,31,19.30
2013,07,14,08,32,19.30
2013,07,14,08,33,19.40
2013,07,14,08,34,19.40
2013,07,14,08,35,19.50
2013,07,14,08,36,19.50
2013,07,14,08,37,19.60
2013,07,14,08,38,19.60
2013,07,14,08,39,19.60
2013,07,14,08,40,19.60
2013,07,14,08,41,19.60
2013,07,14,08,42,19.50
2013,07,14,08,43,19.40
2013,07,14,08,44,19.30
2013,07,14,08,45,19.30
2013,07,14,08,46,19.30
2013,07,14,08,47,19.20
2013,07,14,08,48,19.10
2013,07,14,08,49,19.00
2013,07,14,08,50,19.00
2013,07,14,08,51,18.90
2013,07,14,08,52,19.00
2013,07,14,08,53,19.10
2013,07,14,08,54,19.20
2013,07,14,08,55,19.30
2013,07,14,08,56,19.30
2013,07,14,08,57,19.30
2013,07,14,08,58,19.30
2013,07,14,08,59,19.30
2013,07,14,09,00,19.20
2013,07,14,09,01,19.20
2013,07,14,09,02,19.20
2013,07,14,09,03,19.10
2013,07,14,09,04,19.10
2013,07,14,09,05,19.10
2013,07,14,09,06,19.10
2013,07,14,09,07,19.10
2013,07,14,09,08,19.10
2013,07,14,09,09,19.10
2013,07,14,09,10,19.10
2013,07,14,09,11,19.00
2013,07,14,09,12,19.00
2013,07,14,09,13,18.90
2013,07,14,09,14,18.90
2013,07,14,09,15,18.90
2013,07,14,09,16,18.90
2013,07,14,09,17,18.90
2013,07,14,09,18,18.90
2013,07,14,09,19,18.90
2013,07,14,09,20,18.90
2013,07,14,09,21,18.90
2013,07,14,09,22,18.90
2013,07,14,09,23,19.00
2013,07,14,09,24,19.20
2013,07,14,09,25,19.30
2013,07,14,09,26,19.30
2013,07,14,09,27,19.40
2013,07,14,09,28,19.40
2013,07,14,09,29,19.50
2013,07,14,09,30,19.50
2013,07,14,09,31,19.60
2013,07,14,09,32,19.60
2013,07,14,09,33,19.70
2013,07,14,09,34,19.80
2013,07,14,09,35,19.80
2013,07,14,09,36,19.90
2013,07,14,09,37,19.90
2013,07,14,09,38,19.90
2013,07,14,09,39,19.90
2013,07,14,09,40,19.90
2013,07,14,09,41,19.90
2013,07,14,09,42,19.90
2013,07,14,09,43,19.90
2013,07,14,09,44,19.90
2013,07,14,09,45,20.00
2013,07,14,09,46,20.00
2013,07,14,09,47,20.10
2013,07,14,09,48,20.10
2013,07,14,09,49,20.20
2013,07,14,09,50,20.20
2013,07,14,09,51,20.20
2013,07,14,09,52,20.30
2013,07,14,09,53,20.20
2013,07,14,09,54,20.20
2013,07,14,09,55,20.30
2013,07,14,09,56,20.40
2013,07,14,09,57,20.40
2013,07,14,09,58,20.40
2013,07,14,09,59,20.40
2013,07,14,10,00,20.40
2013,07,14,10,01,20.50
2013,07,14,10,02,20.50
2013,07,14,10,03,20.50
2013,07,14,10,04,20.40
2013,07,14,10,05,20.30
2013,07,14,10,06,20.20
2013,07,14,10,07,20.10
2013,07,14,10,08,20.10
2013,07,14,10,09,20.00
2013,07,14,10,10,19.90
2013,07,14,10,11,19.80
2013,07,14,10,12,19.80
2013,07,14,10,13,19.70
2013,07,14,10,14,19.60
2013,07,14,10,15,19.60
2013,07,14,10,16,19.50
2013,07,14,10,17,19.40
2013,07,14,10,18,19.50
2013,07,14,10,19,19.60
2013,07,14,10,20,19.60
2013,07,14,10,21,19.60
2013,07,14,10,22,19.70
2013,07,14,10,23,19.70
2013,07,14,10,24,19.80
2013,07,14,10,25,19.80
2013,07,14,10,26,19.80
2013,07,14,10,27,19.90
2013,07,14,10,28,19.80
2013,07,14,10,29,19.70
2013,07,14,10,30,19.70
2013,07,14,10,31,19.60
2013,07,14,10,32,19.70
2013,07,14,10,33,19.70
2013,07,14,10,34,19.80
2013,07,14,10,35,19.80
2013,07,14,10,36,19.80
2013,07,14,10,37,19.80
2013,07,14,10,38,19.70
2013,07,14,10,39,19.50
2013,07,14,10,40,19.40
2013,07,14,10,41,19.30
2013,07,14,10,42,19.20
2013,07,14,10,43,19.10
2013,07,14,10,44,19.10
2013,07,14,10,45,19.00
2013,07,14,10,46,18.90
2013,07,14,10,47,18.90
2013,07,14,10,48,18.90
2013,07,14,10,49,18.90
2013,07,14,10,50,18.90
2013,07,14,10,51,19.00
2013,07,14,10,52,19.10
2013,07,14,10,53,19.20
2013,07,14,10,54,19.20
2013,07,14,10,55,19.20
2013,07,14,10,56,19.20
2013,07,14,10,57,19.30
2013,07,14,10,58,19.30
2013,07,14,10,59,19.40
2013,07,14,11,00,19.40
2013,07,14,11,01,19.50
2013,07,14,11,02,19.60
2013,07,14,11,03,19.60
2013,07,14,11,04,19.60
2013,07,14,11,05,19.50
2013,07,14,11,06,19.40
2013,07,14,11,07,19.40
2013,07,14,11,08,19.30
2013,07,14,11,09,19.40
2013,07,14,11,10,19.50
2013,07,14,11,11,19.60
2013,07,14,11,12,19.70
2013,07,14,11,13,19.70
2013,07,14,11,14,19.70
2013,07,14,11,15,19.80
2013,07,14,11,16,19.80
2013,07,14,11,17,19.80
2013,07,14,11,18,19.80
2013,07,14,11,19,19.80
2013,07,14,11,20,19.80
2013,07,14,11,21,19.80
2013,07,14,11,22,19.80
2013,07,14,11,23,19.80
2013,07,14,11,24,19.80
2013,07,14,11,25,19.80
2013,07,14,11,26,19.80
2013,07,14,11,27,19.70
2013,07,14,11,28,19.80
2013,07,14,11,29,19.90
2013,07,14,11,30,19.90
2013,07,14,11,31,20.00
2013,07,14,11,32,20.00
2013,07,14,11,33,20.10
2013,07,14,11,34,20.10
2013,07,14,11,35,20.10
2013,07,14,11,36,20.20
2013,07,14,11,37,20.20
2013,07,14,11,38,20.10
2013,07,14,11,39,20.00
2013,07,14,11,40,19.90
2013,07,14,11,41,19.90
2013,07,14,11,42,20.00
2013,07,14,11,43,20.10
2013,07,14,11,44,20.10
2013,07,14,11,45,20.10
2013,07,14,11,46,20.10
2013,07,14,11,47,20.10
2013,07,14,11,48,20.20
2013,07,14,11,49,20.20
2013,07,14,11,50,20.20
2013,07,14,11,51,20.30
2013,07,14,11,52,20.40
2013,07,14,11,53,20.50
2013,07,14,11,54,20.60
2013,07,14,11,55,20.70
2013,07,14,11,56,20.80
2013,07,14,11,57,20.90
2013,07,14,11,58,20.90
2013,07,14,11,59,20.90
2013,07,14,12,00,20.90
2013,07,14,12,01,20.90
2013,07,14,12,02,20.90
2013,07,14,12,03,20.80
2013,07,14,12,04,20.60
2013,07,14,12,05,20.40
2013,07,14,12,06,20.30
2013,07,14,12,07,20.10
2013,07,14,12,08,20.00
2013,07,14,12,09,19.90
2013,07,14,12,10,19.80
2013,07,14,12,11,19.80
2013,07,14,12,12,19.80
2013,07,14,12,13,19.70
2013,07,14,12,14,19.70
2013,07,14,12,15,19.60
2013,07,14,12,16,19.60
2013,07,14,12,17,19.60
2013,07,14,12,18,19.70
2013,07,14,12,19,19.70
2013,07,14,12,20,19.70
2013,07,14,12,21,19.60
2013,07,14,12,22,19.50
2013,07,14,12,23,19.40
2013,07,14,12,24,19.40
2013,07,14,12,25,19.40
2013,07,14,12,26,19.40
2013,07,14,12,27,19.30
2013,07,14,12,28,19.30
2013,07,14,12,29,19.30
2013,07,14,12,30,19.30
2013,07,14,12,31,19.20
2013,07,14,12,32,19.20
2013,07,14,12,33,19.20
2013,07,14,12,34,19.20
2013,07,14,12,35,19.30
2013,07,14,12,36,19.30
2013,07,14,12,37,19.40
2013,07,14,12,38,19.50
2013,07,14,12,39,19.50
2013,07,14,12,40,19.60
2013,07,14,12,41,19.50
2013,07,14,12,42,19.50
2013,07,14,12,43,19.50
2013,07,14,12,44,19.50
2013,07,14,12,45,19.40
2013,07,14,12,46,19.50
2013,07,14,12,47,19.50
2013,07,14,12,48,19.50
2013,07,14,12,49,19.50
2013,07,14,12,50,19.40
2013,07,14,12,51,19.40
2013,07,14,12,52,19.40
2013,07,14,12,53,19.50
2013,07,14,12,54,19.50
2013,07,14,12,55,19.60
2013,07,14,12,56,19.60
2013,07,14,12,57,19.70
2013,07,14,12,58,19.70
2013,07,14,12,59,19.80
2013,07,14,13,00,19.90
2013,07,14,13,01,20.10
2013,07,14,13,02,20.20
2013,07,14,13,03,20.30
2013,07,14,13,04,20.30
2013,07,14,13,05,20.40
2013,07,14,13,06,20.50
2013,07,14,13,07,20.60
2013,07,14,13,08,20.60
2013,07,14,13,09,20.50
2013,07,14,13,10,20.50
2013,07,14,13,11,20.40
2013,07,14,13,12,20.20
2013,07,14,13,13,20.10
2013,07,14,13,14,20.00
2013,07,14,13,15,19.90
2013,07,14,13,16,19.90
2013,07,14,13,17,19.90
2013,07,14,13,18,19.90
2013,07,14,13,19,19.90
2013,07,14,13,20,19.80
2013,07,14,13,21,19.90
2013,07,14,13,22,19.90
2013,07,14,13,23,20.00
2013,07,14,13,24,20.00
2013,07,14,13,25,20.10
2013,07,14,13,26,20.10
2013,07,14,13,27,20.10
2013,07,14,13,28,20.20
2013,07,14,13,29,20.30
2013,07,14,13,30,20.40
2013,07,14,13,31,20.50
2013,07,14,13,32,20.50
2013,07,14,13,33,20.40
2013,07,14,13,34,20.40
2013,07,14,13,35,20.50
2013,07,14,13,36,20.50
2013,07,14,13,37,20.60
2013,07,14,13,38,20.70
2013,07,14,13,39,20.70
2013,07,14,13,40,20.70
2013,07,14,13,41,20.60
2013,07,14,13,42,20.50
2013,07,14,13,43,20.50
2013,07,14,13,44,20.40
2013,07,14,13,45,20.30
2013,07,14,13,46,20.20
2013,07,14,13,47,20.20
2013,07,14,13,48,20.20
2013,07,14,13,49,20.20
2013,07,14,13,50,20.30
2013,07,14,13,51,20.40
2013,07,14,13,52,20.50
2013,07,14,13,53,20.60
2013,07,14,13,54,20.70
2013,07,14,13,55,20.70
2013,07,14,13,56,20.70
2013,07,14,13,57,20.70
2013,07,14,13,58,20.70
2013,07,14,13,59,20.70
2013,07,14,14,00,20.80
2013,07,14,14,01,20.80
2013,07,14,14,02,20.80
2013,07,14,14,03,20.80
2013,07,14,14,04,20.80
2013,07,14,14,05,20.80
2013,07,14,14,06,20.90
2013,07,14,14,07,21.00
2013,07,14,14,08,21.10
2013,07,14,14,09,21.20
2013,07,14,14,10,21.20
2013,07,14,14,11,21.20
2013,07,14,14,12,21.20
2013,07,14,14,13,21.20
2013,07,14,14,14,21.20
2013,07,14,14,15,21.10
2013,07,14,14,16,21.00
2013,07,14,14,17,20.90
2013,07,14,14,18,20.90
2013,07,14,14,19,20.90
2013,07,14,14,20,20.90
2013,07,14,14,21,20.90
2013,07,14,14,22,20.90
2013,07,14,14,23,21.00
2013,07,14,14,24,21.00
2013,07,14,14,25,21.10
2013,07,14,14,26,21.10
2013,07,14,14,27,21.10
2013,07,14,14,28,21.20
2013,07,14,14,29,21.20
2013,07,14,14,30,21.30
2013,07,14,14,31,21.30
2013,07,14,14,32,21.40
2013,07,14,14,33,21.40
2013,07,14,14,34,21.40
2013,07,14,14,35,21.50
2013,07,14,14,36,21.60
2013,07,14,14,37,21.70
2013,07,14,14,38,21.80
2013,07,14,14,39,21.80
2013,07,14,14,40,21.90
2013,07,14,14,41,21.90
2013,07,14,14,42,21.90
2013,07,14,14,43,21.90
2013,07,14,14,44,22.00
2013,07,14,14,45,22.10
2013,07,14,14,46,22.20
2013,07,14,14,47,22.30
2013,07,14,14,48,22.40
2013,07,14,14,49,22.40
2013,07,14,14,50,22.40
2013,07,14,14,51,22.40
2013,07,14,14,52,22.30
2013,07,14,14,53,22.30
2013,07,14,14,54,22.20
2013,07,14,14,55,22.30
2013,07,14,14,56,22.30
2013,07,14,14,57,22.40
2013,07,14,14,58,22.50
2013,07,14,14,59,22.50
2013,07,14,15,00,22.60
2013,07,14,15,01,22.70
2013,07,14,15,02,22.80
2013,07,14,15,03,22.90
2013,07,14,15,04,22.90
2013,07,14,15,05,22.90
2013,07,14,15,06,22.90
2013,07,14,15,07,22.90
2013,07,14,15,08,22.90
2013,07,14,15,09,22.80
2013,07,14,15,10,22.80
2013,07,14,15,11,22.80
2013,07,14,15,12,22.70
2013,07,14,15,13,22.70
2013,07,14,15,14,22.70
2013,07,14,15,15,22.80
2013,07,14,15,16,22.90
2013,07,14,15,17,22.90
2013,07,14,15,18,22.90
2013,07,14,15,19,23.00
2013,07,14,15,20,23.00
2013,07,14,15,21,22.90
2013,07,14,15,22,22.80
2013,07,14,15,23,22.80
2013,07,14,15,24,22.90
2013,07,14,15,25,22.90
2013,07,14,15,26,22.90
2013,07,14,15,27,22.80
2013,07,14,15,28,22.80
2013,07,14,15,29,22.70
2013,07,14,15,30,22.50
2013,07,14,15,31,22.40
2013,07,14,15,32,22.40
2013,07,14,15,33,22.40
2013,07,14,15,34,22.40
2013,07,14,15,35,22.30
2013,07,14,15,36,22.20
2013,07,14,15,37,22.10
2013,07,14,15,38,22.10
2013,07,14,15,39,22.10
2013,07,14,15,40,22.30
2013,07,14,15,41,22.30
2013,07,14,15,42,22.30
2013,07,14,15,43,22.30
2013,07,14,15,44,22.20
2013,07,14,15,45,22.20
2013,07,14,15,46,22.30
2013,07,14,15,47,22.40
2013,07,14,15,48,22.60
2013,07,14,15,49,22.60
2013,07,14,15,50,22.60
2013,07,14,15,51,22.70
2013,07,14,15,52,22.70
2013,07,14,15,53,22.60
2013,07,14,15,54,22.60
2013,07,14,15,55,22.70
2013,07,14,15,56,22.80
2013,07,14,15,57,22.80
2013,07,14,15,58,22.80
2013,07,14,15,59,22.80
2013,07,14,16,00,22.80
2013,07,14,16,01,22.70
2013,07,14,16,02,22.80
2013,07,14,16,03,22.90
2013,07,14,16,04,23.00
2013,07,14,16,05,23.00
2013,07,14,16,06,23.10
2013,07,14,16,07,23.10
2013,07,14,16,08,23.10
2013,07,14,16,09,23.10
2013,07,14,16,10,23.20
2013,07,14,16,11,23.20
2013,07,14,16,12,23.10
2013,07,14,16,13,23.20
2013,07,14,16,14,23.20
2013,07,14,16,15,23.30
2013,07,14,16,16,23.30
2013,07,14,16,17,23.20
2013,07,14,16,18,23.20
2013,07,14,16,19,23.20
2013,07,14,16,20,23.20
2013,07,14,16,21,23.20
2013,07,14,16,22,23.20
2013,07,14,16,23,23.20
2013,07,14,16,24,23.20
2013,07,14,16,25,23.20
2013,07,14,16,26,23.10
2013,07,14,16,27,23.20
2013,07,14,16,28,23.20
2013,07,14,16,29,23.20
2013,07,14,16,30,23.20
2013,07,14,16,31,23.20
2013,07,14,16,32,23.30
2013,07,14,16,33,23.30
2013,07,14,16,34,23.50
2013,07,14,16,35,23.60
2013,07,14,16,36,23.70
2013,07,14,16,37,23.80
2013,07,14,16,38,23.80
2013,07,14,16,39,23.80
2013,07,14,16,40,23.80
2013,07,14,16,41,23.80
2013,07,14,16,42,23.80
2013,07,14,16,43,23.80
2013,07,14,16,44,23.80
2013,07,14,16,45,23.80
2013,07,14,16,46,23.80
2013,07,14,16,47,23.80
2013,07,14,16,48,23.80
2013,07,14,16,49,23.80
2013,07,14,16,50,23.80
2013,07,14,16,51,23.80
2013,07,14,16,52,23.80
2013,07,14,16,53,23.80
2013,07,14,16,54,23.80
2013,07,14,16,55,23.80
2013,07,14,16,56,23.80
2013,07,14,16,57,23.80
2013,07,14,16,58,23.80
2013,07,14,16,59,23.80
2013,07,14,17,00,23.80
2013,07,14,17,01,23.90
2013,07,14,17,02,23.90
2013,07,14,17,03,23.90
2013,07,14,17,04,23.90
2013,07,14,17,05,23.90
2013,07,14,17,06,23.90
2013,07,14,17,07,23.90
2013,07,14,17,08,24.00
2013,07,14,17,09,24.00
2013,07,14,17,10,24.00
2013,07,14,17,11,23.90
2013,07,14,17,12,23.90
2013,07,14,17,13,23.90
2013,07,14,17,14,24.00
2013,07,14,17,15,24.00
2013,07,14,17,16,24.00
2013,07,14,17,17,24.00
2013,07,14,17,18,23.90
2013,07,14,17,19,23.90